When you browse on this site, cookies collect data to enhance your experience and personalize the content and advertising you see.
Visit our Privacy Policy to learn more. By continuing to use the site, you agree to this use of cookies and data.
  • In United Kingdom
  • List of Countries
  • For 7 days
  • Water Temperature
  • Weather Map
  • Weather Widgets
  • user-avatar
    Login

    Hourly Weather Dhanaura

    Today, 26 January, Sunday

    Time Temperature Precipitation Wind Pressure Humidity
    00:00 +12°C° 0 mm 1 mps 741 mmHg 69%
    01:00 +12°C° 0 mm 2 mps 741 mmHg 72%
    02:00 +10°C° 0 mm 2 mps 740 mmHg 76%
    03:00 +10°C° 0 mm 2 mps 740 mmHg 78%
    04:00 +10°C° 0 mm 2 mps 740 mmHg 81%
    05:00 +10°C° 0 mm 2 mps 740 mmHg 90%
    06:00 +10°C° 0 mm 2 mps 740 mmHg 88%
    07:00 +12°C° 0 mm 2 mps 741 mmHg 86%
    08:00 +13°C° 0 mm 2 mps 741 mmHg 84%
    09:00 +15°C° 0 mm 2 mps 741 mmHg 72%
    10:00 +17°C° 0 mm 3 mps 741 mmHg 60%
    11:00 +20°C° 0 mm 3 mps 741 mmHg 49%
    12:00 +20°C° 0 mm 4 mps 740 mmHg 47%
    13:00 +21°C° 0 mm 4 mps 740 mmHg 45%
    14:00 +22°C° 0 mm 4 mps 739 mmHg 43%
    15:00 +21°C° 0 mm 4 mps 739 mmHg 49%
    16:00 +19°C° 0 mm 3 mps 739 mmHg 54%
    17:00 +18°C° 0 mm 3 mps 738 mmHg 60%
    18:00 +17°C° 0 mm 2 mps 739 mmHg 64%
    19:00 +16°C° 0 mm 2 mps 739 mmHg 68%
    20:00 +15°C° 0 mm 2 mps 740 mmHg 72%
    21:00 +14°C° 0 mm 2 mps 739 mmHg 74%
    22:00 +14°C° 0 mm 2 mps 739 mmHg 76%
    23:00 +13°C° 0 mm 2 mps 739 mmHg 78%

    Tomorrow, 27 January, Monday

    Time Temperature Precipitation Wind Pressure Humidity
    00:00 +13°C° 0 mm 2 mps 739 mmHg 79%
    01:00 +13°C° 0 mm 2 mps 739 mmHg 80%
    02:00 +12°C° 0 mm 2 mps 738 mmHg 81%
    03:00 +12°C° 0 mm 2 mps 738 mmHg 82%
    04:00 +10°C° 0 mm 2 mps 738 mmHg 84%
    05:00 +10°C° 0 mm 2 mps 738 mmHg 85%
    06:00 +12°C° 0 mm 1 mps 738 mmHg 83%
    07:00 +12°C° 0 mm 1 mps 739 mmHg 80%
    08:00 +13°C° 0 mm 1 mps 739 mmHg 77%
    09:00 +15°C° 0 mm 2 mps 740 mmHg 68%
    10:00 +17°C° 0 mm 2 mps 740 mmHg 59%
    11:00 +20°C° 0 mm 3 mps 740 mmHg 50%
    12:00 +21°C° 0 mm 3 mps 739 mmHg 44%
    13:00 +22°C° 0 mm 3 mps 739 mmHg 38%
    14:00 +24°C° 0 mm 3 mps 738 mmHg 33%
    15:00 +23°C° 0 mm 2 mps 738 mmHg 37%
    16:00 +21°C° 0 mm 2 mps 737 mmHg 42%
    17:00 +19°C° 0 mm 2 mps 737 mmHg 47%
    18:00 +18°C° 0 mm 2 mps 737 mmHg 49%
    19:00 +18°C° 0 mm 1 mps 738 mmHg 51%
    20:00 +16°C° 0 mm 1 mps 738 mmHg 54%
    21:00 +16°C° 0 mm 1 mps 738 mmHg 54%
    22:00 +16°C° 0 mm 1 mps 738 mmHg 54%
    23:00 +16°C° 0 mm 1 mps 738 mmHg 55%

    Day after tomorrow, 28 January, Tuesday

    Time Temperature Precipitation Wind Pressure Humidity
    00:00 +15°C° 0 mm 1 mps 738 mmHg 56%
    01:00 +15°C° 0 mm 2 mps 738 mmHg 56%
    02:00 +15°C° 0 mm 2 mps 737 mmHg 57%
    03:00 +15°C° 0 mm 2 mps 737 mmHg 62%
    04:00 +14°C° 0 mm 2 mps 737 mmHg 66%
    05:00 +14°C° 0 mm 2 mps 737 mmHg 70%
    06:00 +14°C° 0 mm 2 mps 737 mmHg 70%
    07:00 +14°C° 0 mm 2 mps 738 mmHg 70%
    08:00 +15°C° 0 mm 2 mps 738 mmHg 70%
    09:00 +16°C° 0.1 mm 3 mps 739 mmHg 67%
    10:00 +17°C° 0.1 mm 3 mps 739 mmHg 64%
    11:00 +18°C° 0.1 mm 3 mps 739 mmHg 61%
    12:00 +19°C° 0.2 mm 4 mps 739 mmHg 60%
    13:00 +19°C° 0.2 mm 5 mps 738 mmHg 59%
    14:00 +20°C° 0.2 mm 6 mps 737 mmHg 58%
    15:00 +19°C° 0.4 mm 5 mps 737 mmHg 64%
    16:00 +18°C° 0.4 mm 4 mps 737 mmHg 70%
    17:00 +17°C° 0.4 mm 3 mps 737 mmHg 76%
    18:00 +15°C° 0.4 mm 4 mps 737 mmHg 79%
    19:00 +15°C° 0.4 mm 4 mps 738 mmHg 81%
    20:00 +14°C° 0.4 mm 4 mps 738 mmHg 84%
    21:00 +14°C° 0.7 mm 4 mps 738 mmHg 86%
    22:00 +14°C° 0.7 mm 4 mps 739 mmHg 89%
    23:00 +14°C° 0.7 mm 3 mps 739 mmHg 91%

    29 January, Wednesday

    Time Temperature Precipitation Wind Pressure Humidity
    00:00 +13°C° 0.2 mm 4 mps 739 mmHg 91%
    01:00 +13°C° 0.2 mm 4 mps 738 mmHg 90%
    02:00 +13°C° 0.2 mm 4 mps 738 mmHg 90%
    03:00 +13°C° 0.7 mm 4 mps 738 mmHg 92%
    04:00 +12°C° 0.7 mm 3 mps 739 mmHg 93%
    05:00 +12°C° 0.7 mm 3 mps 739 mmHg 94%
    06:00 +13°C° 1.1 mm 3 mps 739 mmHg 94%
    07:00 +13°C° 1.1 mm 3 mps 740 mmHg 93%
    08:00 +13°C° 1.1 mm 3 mps 740 mmHg 92%
    09:00 +14°C° 1.3 mm 3 mps 741 mmHg 89%
    10:00 +16°C° 1.3 mm 3 mps 741 mmHg 86%
    11:00 +17°C° 1.3 mm 3 mps 742 mmHg 83%
    12:00 +17°C° 0.6 mm 3 mps 741 mmHg 83%
    13:00 +17°C° 0.6 mm 2 mps 741 mmHg 83%
    14:00 +17°C° 0.6 mm 2 mps 740 mmHg 82%
    15:00 +16°C° 0.5 mm 2 mps 740 mmHg 84%
    16:00 +16°C° 0.5 mm 2 mps 740 mmHg 86%
    17:00 +16°C° 0.5 mm 2 mps 740 mmHg 88%
    18:00 +15°C° 0.1 mm 2 mps 741 mmHg 89%
    19:00 +14°C° 0.1 mm 2 mps 741 mmHg 90%
    20:00 +13°C° 0.1 mm 1 mps 742 mmHg 90%
    21:00 +13°C° 0 mm 2 mps 742 mmHg 91%
    22:00 +12°C° 0 mm 2 mps 742 mmHg 91%
    23:00 +12°C° 0 mm 2 mps 742 mmHg 92%

    30 January, Thursday

    Time Temperature Precipitation Wind Pressure Humidity
    00:00 +10°C° 0 mm 2 mps 742 mmHg 92%
    01:00 +10°C° 0 mm 2 mps 742 mmHg 93%
    02:00 +10°C° 0 mm 2 mps 742 mmHg 93%
    03:00 +9°C° 0 mm 2 mps 742 mmHg 94%
    04:00 +9°C° 0 mm 2 mps 742 mmHg 94%
    05:00 +9°C° 0 mm 3 mps 742 mmHg 95%
    06:00 +9°C° 0 mm 3 mps 742 mmHg 93%
    07:00 +10°C° 0 mm 3 mps 742 mmHg 92%
    08:00 +10°C° 0 mm 3 mps 743 mmHg 90%
    09:00 +12°C° 0 mm 3 mps 743 mmHg 83%
    10:00 +14°C° 0 mm 3 mps 743 mmHg 76%
    11:00 +17°C° 0 mm 3 mps 743 mmHg 68%
    12:00 +18°C° 0 mm 3 mps 742 mmHg 63%
    13:00 +19°C° 0 mm 3 mps 742 mmHg 57%
    14:00 +20°C° 0 mm 3 mps 741 mmHg 52%
    15:00 +19°C° 0 mm 3 mps 741 mmHg 57%
    16:00 +17°C° 0 mm 3 mps 741 mmHg 61%
    17:00 +16°C° 0 mm 3 mps 740 mmHg 66%
    18:00 +14°C° 0 mm 3 mps 741 mmHg 69%
    19:00 +13°C° 0 mm 3 mps 741 mmHg 72%
    20:00 +12°C° 0 mm 3 mps 741 mmHg 75%
    21:00 +11°C° 0 mm 3 mps 741 mmHg 77%
    22:00 +11°C° 0 mm 3 mps 741 mmHg 79%
    23:00 +10°C° 0 mm 2 mps 741 mmHg 82%

    31 January, Friday

    Time Temperature Precipitation Wind Pressure Humidity
    00:00 +10°C° 0 mm 2 mps 741 mmHg 84%
    01:00 +10°C° 0 mm 2 mps 740 mmHg 87%
    02:00 +9°C° 0 mm 3 mps 740 mmHg 90%
    03:00 +9°C° 0 mm 3 mps 740 mmHg 91%
    04:00 +9°C° 0 mm 3 mps 740 mmHg 93%
    05:00 +9°C° 0 mm 3 mps 739 mmHg 94%
    06:00 +9°C° 0 mm 3 mps 740 mmHg 91%
    07:00 +10°C° 0 mm 3 mps 740 mmHg 88%
    08:00 +11°C° 0 mm 3 mps 741 mmHg 85%
    09:00 +13°C° 0 mm 3 mps 741 mmHg 76%
    10:00 +16°C° 0 mm 3 mps 741 mmHg 67%
    11:00 +18°C° 0 mm 3 mps 741 mmHg 58%
    12:00 +19°C° 0 mm 3 mps 741 mmHg 54%
    13:00 +20°C° 0 mm 3 mps 740 mmHg 49%
    14:00 +20°C° 0 mm 3 mps 740 mmHg 45%
    15:00 +19°C° 0 mm 2 mps 739 mmHg 49%
    16:00 +18°C° 0 mm 2 mps 739 mmHg 54%
    17:00 +17°C° 0 mm 2 mps 739 mmHg 58%
    18:00 +16°C° 0 mm 2 mps 739 mmHg 61%
    19:00 +15°C° 0 mm 2 mps 740 mmHg 65%
    20:00 +13°C° 0 mm 2 mps 740 mmHg 68%
    21:00 +13°C° 0 mm 2 mps 740 mmHg 70%
    22:00 +13°C° 0 mm 2 mps 740 mmHg 72%
    23:00 +12°C° 0 mm 2 mps 741 mmHg 74%
    Show more